User: anonymous   Login
Location: Unspecified
(0.0000°N, 0.0000°E)
Time: 20:22:58
(UTC+00:00)
Language:

CAS-6 - Orbit

View from above orbital plane
View from above orbital plane
View from above satellite
View from above satellite

Ground track
Ground track

The orbit is defined by the following mean orbital elements,

1 44881U          26145.62932822 +.00000000 +00000-0 +18421-3 0 00009
2 44881  97.7531 218.4114 0014094 155.3218 204.8676 14.86477687    04
Epoch (UTC): 25 May 2026 15:06:13
Eccentricity: 0.0014094
inclination: 97.7531°
perigee height: 599 km
apogee height: 619 km
right ascension of ascending node: 218.4114°
argument of perigee: 155.3218°
revolutions per day: 14.86477687
mean anomaly at epoch: 204.8676°

The dashed part of the orbit path shows where the satellite is in the earth's shadow,  

DLR